User: anonymous   Login
Location: Home
(51.5204°N, 2.5456°W)
Time: 01:12:42
(UTC+00:00)
Language:

PicSat - Orbit

View from above orbital plane
View from above orbital plane
View from above satellite
View from above satellite

Ground track
Ground track

The orbit data is extracted from the following two-line orbital elements,

1 43131U 18004W   19339.82813471 +.00001345 +00000-0 +57413-4 0  9991
2 43131 097.4723 047.5761 0009780 025.5722 334.5997 15.24616900105430
Epoch (UTC): 05 December 2019 19:52:30
Eccentricity: 0.0009780
inclination: 97.4723°
perigee height: 485 km
apogee height: 498 km
right ascension of ascending node: 47.5761°
argument of perigee: 25.5722°
revolutions per day: 15.24616900
mean anomaly at epoch: 334.5997°
orbit number at epoch: 10543

The dashed part of the orbit path shows where the satellite is in the earth's shadow,  

DLR